This is the latest recevied weather packets stored in our database for station/object OK1KKY-14. If no packets are shown the sender has not sent any weather packets the latest 10 day(s).
| Time | Temp. | Humidity | Pressure | Rain* | Wind** | Luminosity | Snow |
|---|---|---|---|---|---|---|---|
| 1777490535 | 22.22° C | 29% | 1029.8 hPa | - | - | - | - |
| 1777489336 | 21.67° C | 29% | 1029.6 hPa | - | - | - | - |
| 1777488736 | 21.67° C | 28% | 1029.5 hPa | - | - | - | - |
| 1777487536 | 21.11° C | 28% | 1029.1 hPa | - | - | - | - |
| 1777486935 | 20.56° C | 27% | 1029 hPa | - | - | - | - |
| 1777486336 | 19.44° C | 27% | 1028.9 hPa | - | - | - | - |
| 1777485136 | 20° C | 30% | 1028.6 hPa | - | - | - | - |
| 1777483336 | 20.56° C | 30% | 1028.1 hPa | - | - | - | - |
| 1777482740 | 20.56° C | 29% | 1028 hPa | - | - | - | - |
| 1777480334 | 20.56° C | 30% | 1027.8 hPa | - | - | - | - |
| 1777477334 | 20° C | 27% | 1027.4 hPa | - | - | - | - |
| 1777473134 | 19.44° C | 26% | 1027.1 hPa | - | - | - | - |
| 1777469534 | 20° C | 28% | 1026.6 hPa | - | - | - | - |
| 1777468934 | 20° C | 26% | 1026.6 hPa | - | - | - | - |
| 1777468334 | 20° C | 27% | 1026.6 hPa | - | - | - | - |
| 1777467134 | 20° C | 28% | 1026.5 hPa | - | - | - | - |
| 1777465934 | 20° C | 31% | 1026.5 hPa | - | - | - | - |
| 1777465334 | 20° C | 30% | 1026.4 hPa | - | - | - | - |
| 1777464734 | 20.56° C | 28% | 1026.3 hPa | - | - | - | - |
| 1777464134 | 21.11° C | 28% | 1026.3 hPa | - | - | - | - |
| 1777463534 | 20.56° C | 27% | 1026.3 hPa | - | - | - | - |
| 1777462334 | 20.56° C | 29% | 1026.3 hPa | - | - | - | - |
| 1777461734 | 20.56° C | 31% | 1026.3 hPa | - | - | - | - |
| 1777461137 | 20.56° C | 31% | 1026.4 hPa | - | - | - | - |
| 1777460533 | 20.56° C | 32% | 1026.4 hPa | - | - | - | - |
* Rain since midnight (hover to see other rain measurements)
** Current wind speed in m/s (hover to see current wind gust speed)